This is the latest recevied weather packets stored in our database for station/object N5ATR. If no packets are shown the sender has not sent any weather packets the latest 10 day(s).
| Time | Temp. | Humidity | Pressure | Rain* | Wind** | Luminosity | Snow |
|---|---|---|---|---|---|---|---|
| 1777584949 | 17.22° C | 34% | 1011.9 hPa | 0 mm | - | 245 W/m² | - |
| 1777584647 | 15.56° C | 36% | 1012.2 hPa | 0 mm | - | 281 W/m² | - |
| 1777584344 | 15.56° C | 38% | 1012.1 hPa | 0 mm | - | 190 W/m² | - |
| 1777584040 | 15.56° C | 37% | 1012.1 hPa | 0 mm | - | 187 W/m² | - |
| 1777583734 | 15.56° C | 38% | 1012.2 hPa | 0 mm | - | 198 W/m² | - |
| 1777583434 | 15.56° C | 38% | 1012.3 hPa | 0 mm | - | 448 W/m² | - |
| 1777583133 | 16.67° C | 37% | 1011.9 hPa | 0 mm | - | 148 W/m² | - |
| 1777582829 | 16.67° C | 36% | 1012.3 hPa | 0 mm | - | 198 W/m² | - |
| 1777582526 | 17.22° C | 34% | 1012.7 hPa | 0 mm | - | 224 W/m² | - |
| 1777582221 | 16.67° C | 36% | 1012.3 hPa | 0 mm | - | 269 W/m² | - |
| 1777581919 | 17.22° C | 35% | 1012.7 hPa | 0 mm | - | 892 W/m² | - |
| 1777581614 | 16.67° C | 36% | 1012.4 hPa | 0 mm | - | 297 W/m² | - |
| 1777581309 | 15.56° C | 37% | 1012.4 hPa | 0 mm | - | 261 W/m² | - |
| 1777581004 | 15° C | 40% | 1012.5 hPa | 0 mm | - | 167 W/m² | - |
| 1777580703 | 15.56° C | 39% | 1012.9 hPa | 0 mm | - | 168 W/m² | - |
| 1777580400 | 16.67° C | 38% | 1012.9 hPa | 0 mm | - | 858 W/m² | - |
| 1777580095 | 16.67° C | 37% | 1013 hPa | 0 mm | - | 915 W/m² | - |
| 1777579792 | 15° C | 39% | 1012.9 hPa | 0 mm | - | 379 W/m² | - |
| 1777579490 | 17.22° C | 39% | 1013.3 hPa | 0 mm | - | 166 W/m² | - |
| 1777579185 | 16.11° C | 37% | 1012.7 hPa | 0 mm | - | 900 W/m² | - |
| 1777578881 | 16.11° C | 39% | 1013 hPa | 0 mm | - | 635 W/m² | - |
| 1777578577 | 15.56° C | 39% | 1012.9 hPa | 0 mm | - | 889 W/m² | - |
| 1777578277 | 16.67° C | 38% | 1013 hPa | 0 mm | - | 214 W/m² | - |
| 1777577973 | 16.67° C | 37% | 1012.9 hPa | 0 mm | - | 310 W/m² | - |
| 1777577668 | 17.22° C | 37% | 1013.2 hPa | 0 mm | - | 282 W/m² | - |
* Rain latest hour (hover to see other rain measurements)
** Current wind speed in m/s (hover to see current wind gust speed)